Погода Остров Хейса

Погода Остров Хейса : погода сейчас, прогноз погоды и архив. Всё, что Вы хотите узнать о погоде Остров Хейса!

Поиск расширенной информации на нашем сайте:

Другие новости

Новости СМИ2

Главная страница сайта

Новости сайта

02.10.2013

Напоминаем, что на нашем новом сайте вы можете получить высокодетализированные прогнозы погоды по пунктам России, СНГ и мира (включающие важные для авиации метеовеличины, такие как направление и скорость ветра, видимость, явления погоды, количество и форма облачности, нижняя и верхняя граница облачности), а также ознакомиться с разнообразными материалами по авиационной метеорологии и подборкой полезных ссылок на эту тему.

Сайт Метеоцентр.Азия посвящён разработке технологий оптимизации авиаметеорологического обслуживания, включая проектирование и перспективное создание нескольких автоматизированных авиаметеорологических систем:
- система выпуска высокодетальных прогностических карт явлений погоды для нижнего воздушного пространства по России и ближнему зарубежью;
- система верификации прогнозов TAF (выпускаемых синоптиками официальных АМСГ РФ и ближнего зарубежья) и AUTOTAF (выпускаемых сайтом Метеоцентр.Азия) - выявление ошибок, онлайн-сопоставление с фактической погодой METAR, автоматическое внесение коррективов в прогнозы при резком отклонении фактической погоды от прогноза, подсчёт оправдываемости прогнозов по элементам и в целом;
- система обработки, анализа и отображения авиаметеорологической информации для применения провайдерами метеорологической информации.

Рекомендуем: Свадебные арки в Киеве - http://flordekor.com.ua/index.php?p=9 Флордекор.

Погода Остров Хейса - сегодня

Время (UTC), дата Ветер
(°,м/с) 
Видим.   Явления Облачность Т
(°С)
Тd
(°С)
f(%) Тe
(°С)
Pmin
(гПа)
dP
(гПа)
Po
(мм)
O2
(г/м3)
Тmin Tmax R s Состояние
почвы
18 23.03.17 150 (ЮВ) 11{14}  4000 м  слаб. снег  9/0 средняя 
[As op]
-15.4 -16.8 89 -24  1000.1  -2.3  748  321    -16  0.3     
21 23.03.17 150 (ЮВ) 9{14}  20000 м  позёмок{снег}  10/0 средняя 
[Ac As]
-13.3 -14.5 91 -21  998.1  -2  746  317           
00 24.03.17 170 (Ю) 7{12}  20000 м  позёмок{снег}  10/10 1200 м 
[Ac und]
-7.3 -7.9 95 -13  996.2  -1.9  745  309  -17.2      23  неравномерный
мокрый или
старый снег
100% 
06 24.03.17 190 (Ю) 9{13}  20000 м  позёмок{снег}  9/9 800 м 
[Sc]
-4.3 -4.9 96 -10  992.8  -1.4  743  304         
12 24.03.17 280 (З) 4{13}  20000 м    9/9 630 м 
[Sc]
-8.6 -9.6 92 -12  992  0.3  742  310           
15 24.03.17 330 (СЗ) 2000 м  слаб. ливневой снег  10/10 450 м кучево-дожд. 
[Cb cap]
-11.3 -12.3 92 -15  991.3  -0.7  741  313           
18 24.03.17 330 (СЗ) 4000 м  слаб. ливневой снег  10/10 500 м кучево-дожд. 
[Cb cap]
-13.6 -14.8 91 -19  990.6  -0.7  741  315    -3.4     
21 24.03.17 340 (С) 20000 м  позёмок{ливн. осадки}  9/9 500 м 
[Sc]
-15.9 -17.5 87 -23  989.8  -0.9  740  318           
00 25.03.17 320 (СЗ) 20000 м  {ливн. осадки}  10/0 средняя, верхняя 
[Ac trans|Cs]
-18.2 -19.9 87 -22  989.2  -0.5  740  321           
09 25.03.17 260 (З) 20000 м    6/0 средняя 
[Ac trans]
-20.1 -22.2 83 -23  988.2  0.2  739  323           
12 25.03.17 280 (З) 20000 м    10/8 800 м средняя 
[Sc|Ac und]
-18.6 -20.5 85 -23  988.2  739  321           
15 25.03.17 280 (З) 20000 м    9/6 700 м средняя 
[Sc|Ac trans]
-20.7 -22.7 84 -25  988.1  0.1  739  324           
18 25.03.17 310 (СЗ) 20000 м    9/9 660 м 
[Sc]
-18.8 -21 83 -23  987.4  -0.7  738  321    -18.4       
21 25.03.17 340 (С) 20000 м    9/9 720 м 
[Sc]
-18.4 -20.5 84 -24  986.8  -0.6  738  320           
00 26.03.17 290 (З) 20000 м    8/8 840 м 
[Sc]
-22.7 -25.1 81 -27  986.2  -0.6  737  326           
03 26.03.17 310 (СЗ) 20000 м    3/0 средняя 
[Ac trans]
-23.5 -25.7 82 -28  985.6  -0.6  737  327           
06 26.03.17 320 (СЗ) 20000 м    6/0 средняя 
[Ac trans]
-22.9 -25.3 81 -28  985.1  -0.5  737  326  -24         
09 26.03.17 280 (З) 20000 м    8/0 средняя, верхняя 
[Ac trans|Ci fib]
-22.3 -25 79 -27  985.3  0.2  737  325           
12 26.03.17 260 (З) 20000 м    4/0 средняя, верхняя 
[Ac trans|Ci fib]
-23.5 -26.2 78 -28  986.4  737  327           
15 26.03.17 270 (З) 20000 м    10/0 средняя, верхняя 
[Ac trans|Cs]
-22.9 -25.1 82 -26  986.8  0.5  738  326           
18 26.03.17 240 (ЮЗ) 20000 м    10/0 средняя, верхняя 
[Ac trans|Cs]
-23 -24.9 84 -23  987.3  0.5  738  327    -21       
21 26.03.17 250 (З) 20000 м    10/4 600 м средняя 
[Sc|Ac und]
-22.2 -24.1 85 -25  987.8  0.5  739  326           
00 27.03.17 250 (З) 20000 м    10/0 верхняя 
[Cs]
-22.3 -24.4 83 -23  987.8  -0.1  739  326           
03 27.03.17 170 (Ю) 20000 м    10/0 средняя 
[Ac und]
-20.2 -22.1 85 -20  988  0.3  739  323           
06 27.03.17 050 (СВ) 20000 м  позёмок  10/0 средняя 
[Ac und]
-19.6 -21.5 85 -27  987.8  -0.2  739  322           
Время (UTC), дата Ветер
(°,м/с) 
Видим.   Явления Облачность Т
(°С)
Тd
(°С)
f(%) Тe
(°С)
Pmin
(гПа)
dP
(гПа)
Po
(мм)
O2
(г/м3)
Тmin Tmax R s Состояние
почвы

Для получения пояснительной информации подведите курсор к названию столбца.

ПОГОДА Остров Хейса - архив

Всё, что Вы хотите узнать о погоде Остров Хейса - удобно и подробно!

Выберите нужную дату (начиная с 1 января 2015* года) и нажмите кнопку "Найти".
Будут отображены архивные сводки погоды по пункту Остров Хейса, начиная с указанной даты.


Отображать данные в формате CSV (для использования в таблицах Excel)


Внимание! Наш архив погоды предназначен исключительно для личного некоммерческого использования в познавательных целях. Если Вам необходимы официальные справки о состоянии погоды (для производственных, юридических, коммерческих и т.п. целей), обращайтесь в органы Росгидромета.

*Примечание: данная дата относится к архиву по метеостанциям СССР (Россия, СНГ, Балтия).
Архив по метеостанциям Зарубежной Европы и Азии (кроме Китая) хранится 10 дней, по другим регионам земного шара (Китай, Африка, Америка, Австралия, Океания) - 1 день.

Остров Хейса - район местоположения метеостанции


Название, широта, долгота, высота метеостанции:
Остров Хейса (Обсерватория Им.Кренкеля) 80.6°ш. 58.1°д. 22 м над ур. моря [Российская Федерация]

Дополнительная информация

В oтличие oт бoльшинства пoгoдных сайтoв мы публикуем пoдрoбную метеoинфoрмацию в детальнoм прoфессиoнальнoм фoрмате.

Характеристики температуры и влажнoсти вoздуха измеряются на высoте 2 м в тени вдали oт зданий и деревьев.
Скoрoсть ветра измеряется на высoте 10 м (на урoвне рoста челoвека скoрoсть ветра ниже в 1.5-2 раза). Если метеoстанция нахoдится в гoрoде или в лесу, тo скoрoсть ветра занижена на 2-4 м/с пo сравнению с oткрытым местoм. Скoрoсть ветра над акватoриями крупных рек и oзёр, а также на вершинах хoлмoв на 2-5 м/с выше, чем в oбычных услoвиях.
Атмoсфернoе давление в разных тoчках местнoсти мoжет значительнo oтличаться oт давления на метеoстанции, в зависимoсти oт услoвий рельефа (при пoдъёме на 10 м давление пoнижается примернo на 1 мм рт.ст.).